This demonstration page uses our WeatherBlox Daily Observations layout. Learn more.

Left ArrowRight Arrow

Hourly Observations for June 10, 2017

Temp ( °F °C ) Dew Point ( °F °C ) Humidity (%) Winds ( mph kmh ) Pressure ( in mb ) Visibility ( mi km ) Precip ( " mm )
12:52 am 00:52 Clear 67 19.4 58 14.4 73 73 SSE 9 15 29.87 1012 10 16 0.00 0.00
1:52 am 01:52 Clear 65 18.3 59 15 81 81 S 8 13 29.87 1012 10 16 0.00 0.00
2:52 am 02:52 Clear 64 17.8 58 14.4 81 81 SSE 10 17 29.87 1011 10 16 0.00 0.00
3:52 am 03:52 Clear 64 17.8 58 14.4 81 81 SSE 9 15 29.86 1011 10 16 0.00 0.00
4:52 am 04:52 Clear 63 17.2 58 14.4 84 84 SSE 9 15 29.87 1011 10 16 0.00 0.00
5:52 am 05:52 Clear 62 16.7 57 13.9 84 84 SSE 10 17 29.88 1012 10 16 0.00 0.00
6:52 am 06:52 Sunny 64 17.8 58 14.4 81 81 SSE 10 17 29.90 1013 10 16 0.00 0.00
7:52 am 07:52 Sunny 67 19.4 58 14.4 73 73 SSE 12 19 29.91 1013 10 16 0.00 0.00
8:52 am 08:52 Sunny 71 21.7 58 14.4 63 63 S 17 28 29.92 1013 10 16 0.00 0.00
9:52 am 09:52 Sunny 74 23.3 60 15.6 62 62 S 15 24 29.91 1013 10 16 0.00 0.00
10:52 am 10:52 Partly Cloudy 77 25 61 16.1 58 58 S 16 26 29.90 1013 10 16 0.00 0.00
11:52 am 11:52 Sunny 79 26.1 62 16.7 56 56 S 21 33 29.90 1013 10 16 0.00 0.00
12:52 pm 12:52 Sunny 81 27.2 64 17.8 57 57 S 14 22 29.89 1012 10 16 0.00 0.00
1:52 pm 13:52 Mostly Sunny 83 28.3 65 18.3 55 55 S 14 22 29.88 1012 10 16 0.00 0.00
2:52 pm 14:52 Sunny 84 28.9 65 18.3 53 53 S 16 26 29.87 1011 10 16 0.00 0.00
3:52 pm 15:52 Sunny 84 28.9 65 18.3 53 53 S 21 33 29.85 1011 10 16 0.00 0.00
4:52 pm 16:52 Sunny 83 28.3 64 17.8 53 53 S 17 28 29.84 1010 10 16 0.00 0.00
5:52 pm 17:52 Mostly Sunny 83 28.3 65 18.3 55 55 S 17 28 29.83 1010 10 16 0.00 0.00
6:52 pm 18:52 Sunny 82 27.8 65 18.3 56 56 S 17 28 29.82 1010 10 16 0.00 0.00
7:52 pm 19:52 Sunny 79 26.1 65 18.3 62 62 S 16 26 29.83 1010 10 16 0.00 0.00
8:52 pm 20:52 Clear 77 25 64 17.8 64 64 SSE 15 24 29.84 1010 10 16 0.00 0.00
9:52 pm 21:52 Clear 75 23.9 64 17.8 69 69 SSE 14 22 29.85 1011 10 16 0.00 0.00
10:52 pm 22:52 Clear 73 22.8 64 17.8 74 74 S 13 20 29.88 1012 10 16 0.00 0.00
11:52 pm 23:52 Clear 72 22.2 64 17.8 76 76 S 12 19 29.89 1012 10 16 0.00 0.00

Powered by AerisWeather